Regional Weather Roundup
Issued by NWS

Home | Current Version | Previous Version | Graphics & Text | Print | Product List | Glossary On
Versions: 1 2 3 4 5 6 7 8 9 10 11 12 13 14 15 16 17 18 19 20 21 22 23 24 25 26 27 28 29 30 31 32 33 34 35 36 37 38 39 40 41 42 43 44 45 46 47 48 49 50
000
ASUS45 KCYS 281010
RWRWY

WYOMING REGIONAL WEATHER ROUNDUP
NATIONAL WEATHER SERVICE CHEYENNE WY
300 AM MST TUE FEB 28 2017

NOTE:  "FAIR" INDICATES FEW OR NO CLOUDS BELOW 12,000 FEET
WITH NO SIGNIFICANT WEATHER AND/OR OBSTRUCTIONS TO VISIBILITY.

WYZ001-281100-
YELLOWSTONE NATIONAL PARK

CITY           SKY/WX    TMP DP  RH WIND       PRES   REMARKS
LK YELLOWSTONE   N/A      7   4  87 CALM      29.61S
W YELLOWSTONE  NOT AVBL

$$
WYZ002>013-054>058-071-098>099-281100-
NORTHERN WYOMING

CITY           SKY/WX    TMP DP  RH WIND       PRES   REMARKS
JACKSON        MOCLDY    16  12  86 S12       29.69S WCI   3
CODY           FAIR      24   4  42 W9        29.65R WCI  14
GREYBULL       FAIR      24  18  77 CALM      29.67F
WORLAND        FAIR      19  14  81 S10       29.68R WCI   7
SHERIDAN       FAIR      17  13  84 SW8       29.64F WCI   7
BUFFALO        CLOUDY    21  17  84 CALM      29.61R
GILLETTE       CLOUDY    22  20  92 NW10      29.61R WCI  11
HULETT         CLOUDY    23  21  93 NW5       29.58S WCI  17
NEWCASTLE      FAIR      25  18  74 SE6       29.63S WCI  18

$$
WYZ014>020-022>026-101>103-281100-
CENTRAL WYOMING

CITY           SKY/WX    TMP DP  RH WIND       PRES   REMARKS
BIG PINEY      MOCLDY   -14 -17  87 N10       29.73S WCI -34
PINEDALE       FAIR     -17 -22  76 NW7       29.74S WCI -33
DUBOIS         FAIR      10  -2  56 W16       29.61S WCI  -7
LANDER         FAIR      10  -6  48 W13       29.67F WCI  -5
RIVERTON       FAIR       9  -2  61 SW10      29.68S WCI  -5
CASPER         FAIR      14   1  56 SW12      29.68R WCI   0
DOUGLAS        FAIR      14   4  64 N8        29.67R WCI   3

$$
WYZ021-027>030-104>119-281100-
SOUTHERN WYOMING

CITY           SKY/WX    TMP DP  RH WIND       PRES   REMARKS
EVANSTON       MOCLDY     9   5  84 SW5       29.71F WCI   1
KEMMERER         N/A    N/A N/A N/A N8        29.71S
FORT BRIDGER   FAIR      10   8  90 SW10      29.74F WCI  -4
ROCK SPRINGS   FAIR       6   2  83 SW8       29.72F WCI  -7
DIXON            N/A     16  13  89 E5        29.78S WCI   9
RAWLINS        FAIR      12   3  67 W12       29.71S WCI  -2
SARATOGA       PTSUNNY   14   7  73 SW9       29.72F WCI   2
LARAMIE        FAIR      12   5  73 W8        29.66F WCI   0
CHEYENNE       FAIR      24  10  55 NW14      29.65F WCI  12
TORRINGTON     FAIR      27  12  53 W10       29.70F WCI  17
PINE BLUFFS    FAIR      28  12  50 NW17G26   29.65F WCI  16

$$



USA.gov is the U.S. government's official web portal to all federal, state and local government web resources and services.